CW2613 Weather Reports


Display with metric or nautical units.
time (UTC)temp
F
wind
direction
speed
MPH
gust
MPH
rain 1hr
in
rain 24hr
in
rain mn
in
humidity
%
barometer
mb
20180423071714 69 172 0.0 0.0 0.00 0.07 0.00 97 1015.3
20180423070213 70 172 0.0 0.0 0.00 0.07 0.00 97 1015.5
20180423064708 70 172 0.0 0.0 0.00 0.07 0.00 97 1015.5
20180423063207 70 172 0.0 0.0 0.00 0.07 0.00 97 1015.5
20180423061706 70 161 0.0 0.0 0.00 0.07 0.00 97 1015.7
20180423060203 70 167 0.0 0.0 0.00 0.07 0.00 97 1016.0
20180423054701 70 167 0.0 0.0 0.00 0.07 0.00 96 1016.4
20180423053159 70 167 0.0 0.0 0.00 0.07 0.00 96 1016.5
20180423051701 70 167 0.0 0.0 0.00 0.07 0.00 96 1016.5
20180423050157 71 167 0.0 0.0 0.00 0.07 0.00 95 1016.6
20180423044656 71 167 0.0 0.0 0.00 0.07 0.00 95 1017.0
20180423043154 72 167 0.0 0.0 0.00 0.07 0.00 94 1017.1
20180423041650 72 167 0.0 0.0 0.00 0.07 0.00 94 1017.1
20180423040149 73 167 0.0 0.0 0.00 0.07 0.00 93 1017.2
20180423034647 73 167 0.0 0.0 0.00 0.07 0.07 93 1017.5
20180423033147 73 167 0.0 0.0 0.00 0.07 0.07 92 1017.5
20180423031646 73 169 0.0 0.0 0.00 0.07 0.07 92 1017.5
20180423030146 74 169 0.0 0.0 0.00 0.07 0.07 91 1017.6
20180423024645 74 169 0.0 1.0 0.00 0.07 0.07 92 1017.6
20180423023145 74 72 0.0 0.0 0.00 0.07 0.07 92 1017.4
20180423021644 74 72 0.0 0.0 0.00 0.07 0.07 91 1017.2
20180423020144 74 72 0.0 0.0 0.00 0.07 0.07 92 1017.2
20180423014643 73 155 0.0 0.0 0.00 0.07 0.07 91 1017.3
20180423013145 74 127 0.0 0.0 0.00 0.07 0.07 91 1017.0
20180423011643 74 63 0.0 0.0 0.00 0.07 0.07 90 1016.7
20180423010145 74 63 0.0 1.0 0.00 0.07 0.07 88 1016.3
20180423004642 74 34 0.0 3.0 0.00 0.07 0.07 89 1016.1
20180423003143 74 48 0.0 4.0 0.00 0.07 0.07 89 1016.0
20180423002541 74 20 0.0 1.0 0.00 0.07 0.07 88 1016.0
20180423000211 75 49 0.0 1.0 0.00 0.07 0.07 88 1016.4
20180422234712 76 30 0.0 1.0 0.00 0.07 0.07 88 1016.4
20180422233207 76 35 0.0 0.0 0.00 0.07 0.07 87 1016.4
20180422231707 77 35 0.0 1.0 0.00 0.07 0.07 84 1016.4
20180422230205 78 355 0.0 3.0 0.00 0.07 0.07 81 1016.1
20180422224705 78 327 0.0 0.0 0.00 0.07 0.07 81 1016.5
20180422223209 79 32 0.0 4.0 0.00 0.07 0.07 80 1016.4
20180422221705 80 42 0.0 6.0 0.00 0.07 0.07 79 1016.2
20180422220204 80 160 0.0 5.0 0.00 0.07 0.07 78 1016.2
20180422214706 81 31 0.0 2.0 0.00 0.07 0.07 77 1016.0
20180422213205 80 45 0.0 1.0 0.00 0.07 0.07 77 1015.9
20180422211705 81 327 0.0 3.0 0.00 0.07 0.07 77 1015.6
20180422210204 82 146 0.0 4.0 0.00 0.07 0.07 76 1015.7
20180422204655 80 335 0.0 1.0 0.00 0.07 0.07 79 1015.6
20180422203154 79 44 0.0 3.0 0.00 0.07 0.07 78 1016.2
20180422201653 78 179 0.0 5.0 0.00 0.07 0.07 77 1016.4
20180422200149 77 51 0.0 4.0 0.00 0.07 0.07 77 1016.8
20180422194642 74 166 0.0 2.0 0.00 0.07 0.07 89 1017.1
20180422193143 71 41 0.0 1.0 0.01 0.07 0.07 93 1017.4
20180422191645 70 41 0.0 3.0 0.01 0.07 0.07 93 1017.9
20180422190139 70 30 0.0 4.0 0.01 0.07 0.07 92 1018.2
20180422184637 70 49 0.0 2.0 0.01 0.07 0.07 90 1018.4
20180422183139 71 68 0.0 1.0 0.00 0.06 0.06 89 1018.8
20180422181636 71 68 0.0 2.0 0.00 0.06 0.06 88 1018.4
20180422180135 71 169 0.0 3.0 0.00 0.06 0.06 87 1018.8
20180422174633 71 276 1.0 6.0 0.00 0.06 0.06 82 1018.7
20180422173132 74 51 1.0 9.0 0.00 0.06 0.06 74 1018.5
20180422171628 85 239 0.0 2.0 0.00 0.06 0.06 67 1018.6
20180422170132 87 8 0.0 3.0 0.00 0.06 0.06 64 1018.1
20180422164628 87 321 0.0 5.0 0.00 0.19 0.06 64 1018.3
20180422163129 87 131 0.0 5.0 0.00 0.19 0.06 65 1018.4
20180422161627 86 20 0.0 5.0 0.00 0.19 0.06 65 1018.6
20180422160121 85 32 0.0 6.0 0.00 0.19 0.06 70 1019.0
20180422154616 82 43 2.0 7.0 0.00 0.19 0.06 73 1019.2
20180422153117 82 63 0.0 5.0 0.00 0.19 0.06 74 1019.3
20180422151612 78 89 0.0 5.0 0.01 0.19 0.06 82 1019.5
20180422150111 77 341 0.0 7.0 0.01 0.19 0.06 85 1019.4
20180422144609 77 46 1.0 7.0 0.01 0.19 0.06 86 1019.5
20180422143110 76 15 0.0 3.0 0.01 0.19 0.06 89 1019.6
20180422141614 77 118 0.0 4.0 0.00 0.18 0.05 85 1019.8
20180422140105 77 55 1.0 5.0 0.00 0.18 0.05 84 1019.4
20180422134601 77 30 0.0 4.0 0.00 0.18 0.05 87 1019.4
20180422133058 75 54 0.0 2.0 0.00 0.18 0.05 90 1019.0
20180422131555 73 13 0.0 1.0 0.00 0.18 0.05 94 1018.9
20180422130052 71 32 1.0 5.0 0.01 0.18 0.05 94 1019.0
20180422124554 72 23 0.0 9.0 0.01 0.18 0.05 96 1019.2
20180422123051 72 50 0.0 3.0 0.01 0.18 0.05 97 1019.1
20180422121601 73 60 0.0 0.0 0.01 0.18 0.05 97 1019.0
20180422120052 72 60 0.0 0.0 0.00 0.17 0.04 97 1018.8
20180422114552 71 60 0.0 0.0 0.00 0.17 0.04 97 1018.7
20180422113048 71 60 0.0 1.0 0.00 0.17 0.04 97 1018.3
20180422111548 71 29 0.0 2.0 0.00 0.17 0.04 97 1018.2
20180422110051 71 359 0.0 0.0 0.01 0.17 0.04 96 1018.0
20180422104548 71 359 0.0 0.0 0.04 0.17 0.04 96 1017.8
20180422103045 71 155 0.0 0.0 0.04 0.17 0.04 95 1017.7
20180422101545 72 155 0.0 0.0 0.04 0.17 0.04 95 1017.7
20180422100047 72 155 0.0 0.0 0.03 0.16 0.03 94 1017.8
20180422094544 73 44 0.0 2.0 0.00 0.13 0.00 92 1017.7
20180422093045 73 20 0.0 4.0 0.00 0.13 0.00 93 1017.7
20180422091542 71 18 0.0 1.0 0.00 0.13 0.00 94 1017.8
20180422090041 72 15 0.0 1.0 0.00 0.13 0.00 93 1017.6
20180422084543 72 359 0.0 1.0 0.00 0.13 0.00 92 1017.5
20180422083041 72 39 0.0 2.0 0.00 0.13 0.00 93 1017.5
20180422081545 72 79 0.0 2.0 0.00 0.13 0.00 92 1017.6
20180422080039 72 82 0.0 1.0 0.00 0.13 0.00 91 1017.6
20180422074535 72 56 0.0 4.0 0.00 0.13 0.00 90 1017.6
20180422073035 73 32 0.0 3.0 0.00 0.13 0.00 90 1017.5